Location: Unspecified
(35.6961°N, 0.0000°E)
Time: 08:29:39
(UTC+00:00)

S-56A Canister/Altair - Pass Details

Date: 29 May 2019
Orbit: 633 x 2499 km, 38.9° (Epoch: 15 June)

Event Time Altitude Azimuth Distance (km) Brightness Sun altitude
Rises 05:11:32 0° 288° (WNW) 4,075 10.8 3.7°
Reaches altitude 10° 05:14:00 10° 283° (WNW) 3,322 10.3 4.2°
Maximum altitude 05:22:24 55° 209° (SSW) 2,001 9.5 5.7°
Drops below altitude 10° 05:34:44 10° 136° (SE) 4,775 11.9 8.1°
Sets 05:39:03 0° 133° (SE) 5,960 12.5 8.9°
